Weather History for KSHR - November, 2014

Change the Weather History Date:

Saturday, November 29, 2014

  Actual Average Record
Temperature  
Mean Temperature 29 °F 26 °F  
Max Temperature 58 °F 39 °F 64 °F (1973)
Min Temperature -1 °F 14 °F -12 °F (1975)
Degree Days  
Heating Degree Days 36 39  
Month to date heating degree days 1031 933  
Since 1 July heating degree days 1760 1841  
Cooling Degree Days 0 0  
Month to date cooling degree days 0 0  
Year to date cooling degree days 346 419  
Moisture  
Dew Point 8 °F    
Average Humidity 55    
Maximum Humidity 92    
Minimum Humidity 17    
Precipitation  
Precipitation 0.20 in 0.02 in 0.22 in (1976)
Month to date precipitation 1.46 0.69  
Year to date precipitation 14.32 13.58  
Sea Level Pressure  
Sea Level Pressure 29.64 in    
Wind  
Wind Speed 17 mph (NNW)    
Max Wind Speed 46 mph    
Max Gust Speed 59 mph    
Visibility 5 miles    
Events Fog , Snow    
T = Trace of Precipitation, MM = Missing Value Source: NWS Daily Summary

Daily Weather History Graph

Daily Weather History Graph

Search for Another Location

Airport or City:

Trip Planner

Search our weather history database for the weather conditions in past years. The results will help you decide how hot, cold, wet, or windy it might be!

Date:

Astronomy

Nov. 29, 2014 Rise Set
Actual Time 7:22 AM MST 4:29 PM MST
Civil Twilight 6:50 AM MST 5:02 PM MST
Nautical Twilight 6:13 AM MST 5:38 PM MST
Astronomical Twilight 5:38 AM MST 6:13 PM MST
Moon 12:42 PM MST (11/29) No Moon Set
Length of Visible Light 10h 12m
Length of Day
9h 06m
First Quarter, 54% of the Moon is Illuminated
Nov 29
First Quarter
Dec 6
Full
Dec 14
Last Quarter
Dec 21
New
Dec 28
First Quarter

Hourly Weather History & Observations

Time (MST) Temp. Windchill Dew Point Humidity Pressure Visibility Wind Dir Wind Speed Gust Speed Precip Events Conditions
12:53 AM 57.9 °F - 12.9 °F 17% 29.28 in 10.0 mi WSW 36.8 mph 55.2 mph N/A   Clear
1:53 AM 55.9 °F - 12.9 °F 18% 29.30 in 10.0 mi SW 28.8 mph 39.1 mph N/A   Clear
2:53 AM 57.0 °F - 12.9 °F 18% 29.28 in 10.0 mi SW 34.5 mph 48.3 mph N/A   Clear
3:53 AM 55.9 °F - 14.0 °F 19% 29.34 in 10.0 mi West 24.2 mph 42.6 mph N/A   Clear
4:53 AM 55.9 °F - 12.9 °F 18% 29.32 in 10.0 mi WSW 31.1 mph 42.6 mph N/A   Clear
5:53 AM 54.0 °F - 14.0 °F 21% 29.32 in 10.0 mi SW 26.5 mph 34.5 mph N/A   Clear
6:53 AM 54.0 °F - 14.0 °F 21% 29.33 in 10.0 mi SW 12.7 mph 27.6 mph N/A   Clear
7:28 AM 36.0 °F 26.7 °F 21.9 °F 57% 29.40 in 10.0 mi North 15.0 mph 19.6 mph N/A   Clear
7:45 AM 30.0 °F 20.0 °F 21.9 °F 72% 29.40 in 10.0 mi North 12.7 mph - N/A   Clear
7:53 AM 28.9 °F 18.6 °F 21.9 °F 75% 29.42 in 10.0 mi NNE 12.7 mph - N/A   Clear
8:18 AM 26.1 °F 13.6 °F 23.0 °F 88% 29.44 in 9.0 mi NNE 16.1 mph - N/A   Scattered Clouds
8:23 AM 26.1 °F 13.6 °F 23.0 °F 88% 29.44 in 2.5 mi North 16.1 mph - N/A   Mostly Cloudy
8:28 AM 25.0 °F 12.6 °F 23.0 °F 92% 29.45 in 0.8 mi North 15.0 mph - N/A   Mist
8:51 AM 24.8 °F 13.4 °F 23.0 °F 93% 29.46 in 0.8 mi North 12.7 mph - N/A   Mist
8:53 AM 25.0 °F 13.6 °F 23.0 °F 92% 29.47 in 0.8 mi North 12.7 mph - N/A   Mist
9:09 AM 24.1 °F 12.5 °F 21.9 °F 91% 29.47 in 1.0 mi North 12.7 mph - N/A   Mist
9:17 AM 24.1 °F 12.5 °F 21.9 °F 91% 29.47 in 0.8 mi NNW 12.7 mph - N/A   Mist
9:25 AM 24.1 °F 12.0 °F 21.9 °F 91% 29.47 in 0.5 mi North 13.8 mph - N/A Fog Light Freezing Fog
9:39 AM 24.1 °F 14.4 °F 21.9 °F 91% 29.48 in 1.0 mi North 9.2 mph - N/A   Mist
9:48 AM 24.8 °F 15.3 °F 21.2 °F 86% 29.49 in 3.0 mi North 9.2 mph - N/A   Overcast
9:53 AM 24.1 °F 13.7 °F 21.9 °F 91% 29.51 in 4.0 mi North 10.4 mph - N/A   Overcast
10:53 AM 23.0 °F 10.6 °F 19.9 °F 88% 29.54 in 6.0 mi NNW 13.8 mph - N/A   Overcast
11:53 AM 18.0 °F 3.1 °F 15.1 °F 88% 29.56 in 10.0 mi NW 16.1 mph - N/A   Overcast
12:38 PM 16.0 °F 0.1 °F 12.0 °F 84% 29.55 in 10.0 mi NW 17.3 mph - N/A   Overcast
12:53 PM 14.0 °F -3.4 °F 10.0 °F 84% 29.61 in 8.0 mi NW 19.6 mph - N/A   Overcast
1:48 PM 10.4 °F -7.7 °F 6.8 °F 85% 29.60 in 3.0 mi NW 18.4 mph - N/A Snow Light Snow
1:53 PM 10.9 °F -7.5 °F 6.1 °F 81% 29.69 in 3.0 mi WNW 19.6 mph - 0.00 in Snow Light Snow
2:27 PM 10.0 °F -8.1 °F 3.9 °F 76% 29.65 in 4.0 mi NW 18.4 mph - 0.00 in Snow Light Snow
2:53 PM 8.1 °F -12.2 °F 1.9 °F 76% 29.75 in 8.0 mi NW 21.9 mph - 0.00 in Snow Light Snow
3:53 PM 7.0 °F -11.6 °F -0.0 °F 73% 29.82 in 6.0 mi NW 17.3 mph - 0.00 in   Haze
4:53 PM 5.0 °F -8.1 °F -0.9 °F 76% 29.84 in 7.0 mi WNW 8.1 mph - N/A   Overcast
5:53 PM 6.1 °F -2.8 °F -2.9 °F 67% 29.87 in 10.0 mi North 4.6 mph - N/A   Overcast
6:26 PM 6.1 °F -6.8 °F -2.0 °F 69% 29.79 in 10.0 mi NNW 8.1 mph - N/A   Overcast
6:53 PM 6.1 °F -2.8 °F -0.9 °F 73% 29.87 in 6.0 mi NNE 4.6 mph - 0.00 in Snow Light Snow
7:19 PM 6.1 °F -6.8 °F -0.9 °F 73% 29.77 in 8.0 mi NNE 8.1 mph - 0.00 in   Overcast
7:53 PM 5.0 °F -8.1 °F -0.9 °F 76% 29.96 in 4.0 mi NE 8.1 mph - 0.00 in Snow Light Snow
8:06 PM 5.0 °F -6.9 °F -0.9 °F 76% 29.78 in 1.8 mi NNE 6.9 mph - 0.01 in Snow Light Snow
8:49 PM 3.2 °F -7.8 °F -0.4 °F 85% 29.79 in 0.8 mi NNE 5.8 mph - 0.03 in Snow Light Snow
8:53 PM 3.9 °F -6.9 °F -0.9 °F 80% 29.97 in 0.8 mi North 5.8 mph - 0.04 in Snow Light Snow
9:02 PM 5.0 °F -5.6 °F -0.9 °F 76% 29.78 in 1.2 mi NE 5.8 mph - 0.00 in Snow Light Snow
9:09 PM 5.0 °F -5.6 °F -0.0 °F 80% 29.80 in 1.8 mi NNE 5.8 mph - 0.00 in Snow Light Snow
9:27 PM 3.9 °F -8.2 °F -0.9 °F 80% 29.79 in 0.8 mi North 6.9 mph - 0.02 in Snow Light Snow
9:43 PM 3.9 °F -11.3 °F -0.9 °F 80% 29.82 in 1.0 mi North 10.4 mph - 0.03 in Snow Light Snow
9:53 PM 3.9 °F -11.3 °F -0.9 °F 80% 30.01 in 1.0 mi North 10.4 mph - 0.04 in Snow Light Snow
10:11 PM 3.0 °F -11.5 °F -2.0 °F 80% 29.82 in 0.8 mi North 9.2 mph - 0.01 in Snow Light Snow
10:17 PM 3.0 °F -13.3 °F -2.0 °F 80% 29.82 in 1.0 mi North 11.5 mph - 0.02 in Snow Light Snow
10:53 PM 1.0 °F -12.9 °F -4.0 °F 79% 30.05 in 1.0 mi North 8.1 mph - 0.03 in Snow Light Snow
11:08 PM -0.0 °F -14.2 °F -5.1 °F 79% 29.84 in 1.0 mi North 8.1 mph - 0.01 in Snow Light Snow
11:15 PM -0.0 °F -14.2 °F -5.1 °F 79% 29.84 in 0.5 mi North 8.1 mph - 0.02 in Snow Snow
11:38 PM -0.0 °F -17.1 °F -5.1 °F 79% 29.86 in 0.5 mi North 11.5 mph - 0.07 in Snow Snow
11:53 PM -0.9 °F -18.3 °F -6.0 °F 79% 30.11 in 0.8 mi North 11.5 mph - 0.08 in Snow Light Snow